Medford, WI

12:43 AM CDT on July 28, 2017 (GMT -0500)
Taylor County

Weather History for KMDZ - January, 2013

Change the Weather History Date:

Sunday, January 20, 2013

  Actual Average Record
Temperature  
Mean Temperature 2 °F -  
Max Temperature 6 °F 21 °F 41 °F (1981)
Min Temperature -2 °F 0 °F -29 °F (1985)
Degree Days  
Heating Degree Days 63    
Moisture  
Dew Point -8 °F    
Average Humidity 66    
Maximum Humidity 78    
Minimum Humidity 48    
Precipitation  
Precipitation 0.00 in - - ()
Sea Level Pressure  
Sea Level Pressure 30.12 in    
Wind  
Wind Speed 12 mph (WNW)    
Max Wind Speed 22 mph    
Max Gust Speed 29 mph    
Visibility 10 miles    
Events      
Averages and records for this station are not official NWS values.
T = Trace of Precipitation, MM = Missing Value Source: NWS Daily Summary

Daily Weather History Graph

Daily Weather History Graph

Search for Another Location

Airport or City:

Trip Planner

Search our weather history database for the weather conditions in past years. The results will help you decide how hot, cold, wet, or windy it might be!

Date:

Astronomy

Jan. 20, 2013 Rise Set
Actual Time 7:32 AM CST 4:52 PM CST
Civil Twilight 7:00 AM CST 5:24 PM CST
Nautical Twilight 6:24 AM CST 6:00 PM CST
Astronomical Twilight 5:49 AM CST 6:35 PM CST
Moon 11:54 AM CST (1/20) 2:03 AM CST (1/20)
Length of Visible Light 10h 24m
Length of Day
9h 19m
Waxing Gibbous, 66% of the Moon is Illuminated
Jan 20
Waxing Gibbous
Jan 26
Full
Feb 3
Last Quarter
Feb 10
New
Feb 17
First Quarter

Hourly Weather History & Observations

Time (CST) Temp. Windchill Dew Point Humidity Pressure Visibility Wind Dir Wind Speed Gust Speed Precip Events Conditions
12:15 AM 3.2 °F -15.3 °F -5.8 °F 66% 29.93 in 10.0 mi NW 15.0 mph 26.5 mph N/A   Scattered Clouds
12:35 AM 3.2 °F -18.6 °F -5.8 °F 66% 29.95 in 10.0 mi NW 21.9 mph 28.8 mph N/A   Clear
12:55 AM 1.4 °F -17.6 °F -5.8 °F 72% 29.96 in 10.0 mi NW 15.0 mph 26.5 mph N/A   Clear
1:15 AM 1.4 °F -17.6 °F -5.8 °F 72% 29.97 in 10.0 mi NW 15.0 mph 24.2 mph N/A   Clear
1:35 AM 1.4 °F -16.9 °F -7.6 °F 66% 29.99 in 10.0 mi WNW 13.8 mph 20.7 mph N/A   Clear
1:55 AM 1.4 °F -17.6 °F -7.6 °F 66% 30.00 in 10.0 mi WNW 15.0 mph 25.3 mph N/A   Clear
2:15 AM 1.4 °F -16.9 °F -7.6 °F 66% 30.02 in 10.0 mi WNW 13.8 mph 20.7 mph N/A   Clear
2:35 AM 1.4 °F -16.9 °F -7.6 °F 66% 30.04 in 10.0 mi WNW 13.8 mph 24.2 mph N/A   Clear
2:55 AM 1.4 °F -16.9 °F -7.6 °F 66% 30.04 in 10.0 mi WNW 13.8 mph 21.9 mph N/A   Clear
3:15 AM -0.4 °F -19.2 °F -7.6 °F 72% 30.06 in 10.0 mi WNW 13.8 mph 18.4 mph N/A   Clear
3:35 AM -0.4 °F -19.9 °F -7.6 °F 72% 30.06 in 10.0 mi WNW 15.0 mph 19.6 mph N/A   Clear
3:55 AM -0.4 °F -18.4 °F -7.6 °F 72% 30.08 in 10.0 mi WNW 12.7 mph 21.9 mph N/A   Clear
4:15 AM -0.4 °F -20.5 °F -7.6 °F 72% 30.08 in 10.0 mi WNW 16.1 mph 20.7 mph N/A   Clear
4:35 AM -0.4 °F -19.2 °F -7.6 °F 72% 30.08 in 10.0 mi WNW 13.8 mph 19.6 mph N/A   Clear
4:55 AM -0.4 °F -18.4 °F -7.6 °F 72% 30.09 in 10.0 mi WNW 12.7 mph 19.6 mph N/A   Clear
5:15 AM -0.4 °F -17.6 °F -7.6 °F 72% 30.11 in 10.0 mi WNW 11.5 mph 23.0 mph N/A   Clear
5:35 AM -2.2 °F -21.5 °F -9.4 °F 71% 30.12 in 10.0 mi WNW 13.8 mph 19.6 mph N/A   Clear
5:55 AM -2.2 °F -19.9 °F -9.4 °F 71% 30.13 in 10.0 mi WNW 11.5 mph 17.3 mph N/A   Clear
6:15 AM -2.2 °F -19.9 °F -9.4 °F 71% 30.12 in 10.0 mi WNW 11.5 mph 17.3 mph N/A   Clear
6:35 AM -2.2 °F -19.9 °F -9.4 °F 71% 30.15 in 10.0 mi WNW 11.5 mph - N/A   Clear
6:55 AM -2.2 °F -18.9 °F -9.4 °F 71% 30.16 in 10.0 mi WNW 10.4 mph 17.3 mph N/A   Clear
7:15 AM -2.2 °F -21.5 °F -9.4 °F 71% 30.16 in 10.0 mi WNW 13.8 mph - N/A   Clear
7:35 AM -2.2 °F -18.0 °F -9.4 °F 71% 30.16 in 10.0 mi WNW 9.2 mph - N/A   Clear
7:55 AM -2.2 °F -19.9 °F -9.4 °F 71% 30.16 in 10.0 mi WNW 11.5 mph - N/A   Clear
8:15 AM -2.2 °F -19.9 °F -9.4 °F 71% 30.16 in 10.0 mi WNW 11.5 mph - N/A   Clear
8:35 AM -2.2 °F -18.0 °F -9.4 °F 71% 30.17 in 10.0 mi WNW 9.2 mph - N/A   Clear
8:55 AM -2.2 °F -18.9 °F -9.4 °F 71% 30.18 in 10.0 mi NW 10.4 mph 16.1 mph N/A   Clear
9:15 AM -2.2 °F -18.9 °F -9.4 °F 71% 30.18 in 10.0 mi WNW 10.4 mph - N/A   Clear
9:35 AM -0.4 °F -17.6 °F -9.4 °F 66% 30.18 in 10.0 mi West 11.5 mph - N/A   Clear
9:55 AM -0.4 °F -17.6 °F -9.4 °F 66% 30.19 in 10.0 mi WNW 11.5 mph - N/A   Clear
10:15 AM 1.4 °F -13.5 °F -7.6 °F 66% 30.18 in 10.0 mi WNW 9.2 mph 17.3 mph N/A   Clear
10:35 AM 1.4 °F -13.5 °F -7.6 °F 66% 30.19 in 10.0 mi West 9.2 mph - N/A   Clear
10:55 AM 3.2 °F -13.1 °F -7.6 °F 61% 30.19 in 10.0 mi WNW 11.5 mph 17.3 mph N/A   Clear
11:15 AM 3.2 °F -12.2 °F -7.6 °F 61% 30.19 in 10.0 mi West 10.4 mph - N/A   Clear
11:35 AM 3.2 °F -13.1 °F -7.6 °F 61% 30.19 in 10.0 mi WNW 11.5 mph - N/A   Clear
11:55 AM 3.2 °F -12.2 °F -7.6 °F 61% 30.19 in 10.0 mi West 10.4 mph - N/A   Clear
12:15 PM 5.0 °F -11.6 °F -7.6 °F 56% 30.18 in 10.0 mi West 12.7 mph - N/A   Clear
12:35 PM 5.0 °F -8.1 °F -7.6 °F 56% 30.17 in 10.0 mi West 8.1 mph - N/A   Clear
12:55 PM 6.8 °F -10.0 °F -7.6 °F 52% 30.16 in 10.0 mi West 13.8 mph 17.3 mph N/A   Clear
1:15 PM 6.8 °F -9.3 °F -5.8 °F 56% 30.16 in 10.0 mi West 12.7 mph - N/A   Clear
1:35 PM 6.8 °F -6.9 °F -7.6 °F 52% 30.15 in 10.0 mi West 9.2 mph - N/A   Clear
1:55 PM 6.8 °F -8.6 °F -7.6 °F 52% 30.14 in 10.0 mi West 11.5 mph 18.4 mph N/A   Clear
2:15 PM 6.8 °F -7.8 °F -7.6 °F 52% 30.15 in 10.0 mi West 10.4 mph 19.6 mph N/A   Clear
2:35 PM 6.8 °F -11.3 °F -7.6 °F 52% 30.15 in 10.0 mi West 16.1 mph - N/A   Clear
2:55 PM 6.8 °F -9.3 °F -7.6 °F 52% 30.15 in 10.0 mi NW 12.7 mph 17.3 mph N/A   Clear
3:15 PM 6.8 °F -7.8 °F -9.4 °F 48% 30.15 in 10.0 mi WNW 10.4 mph - N/A   Scattered Clouds
3:35 PM 6.8 °F -9.3 °F -9.4 °F 48% 30.14 in 10.0 mi WNW 12.7 mph - N/A   Overcast
3:55 PM 6.8 °F -8.6 °F -7.6 °F 52% 30.14 in 10.0 mi West 11.5 mph - N/A   Mostly Cloudy
4:15 PM 5.0 °F -9.1 °F -7.6 °F 56% 30.14 in 10.0 mi WNW 9.2 mph - N/A   Mostly Cloudy
4:35 PM 5.0 °F -8.1 °F -7.6 °F 56% 30.14 in 10.0 mi West 8.1 mph - N/A   Scattered Clouds
4:55 PM 3.2 °F -6.2 °F -7.6 °F 61% 30.14 in 10.0 mi West 4.6 mph - N/A   Scattered Clouds
5:35 PM 3.2 °F -12.2 °F -7.6 °F 61% 30.13 in 10.0 mi West 10.4 mph - N/A   Clear
5:55 PM 3.2 °F -11.3 °F -7.6 °F 61% 30.13 in 10.0 mi West 9.2 mph - N/A   Scattered Clouds
6:15 PM 1.4 °F -11.3 °F -7.6 °F 66% 30.13 in 10.0 mi West 6.9 mph - N/A   Mostly Cloudy
6:35 PM 1.4 °F -14.5 °F -7.6 °F 66% 30.12 in 10.0 mi West 10.4 mph - N/A   Scattered Clouds
6:55 PM 1.4 °F -12.5 °F -7.6 °F 66% 30.12 in 10.0 mi West 8.1 mph - N/A   Clear
7:15 PM 1.4 °F -9.9 °F -7.6 °F 66% 30.13 in 10.0 mi West 5.8 mph - N/A   Clear
7:35 PM 1.4 °F -13.5 °F -7.6 °F 66% 30.12 in 10.0 mi West 9.2 mph - N/A   Mostly Cloudy
7:55 PM 1.4 °F -12.5 °F -7.6 °F 66% 30.12 in 10.0 mi West 8.1 mph - N/A   Overcast
8:15 PM 1.4 °F -12.5 °F -7.6 °F 66% 30.11 in 10.0 mi West 8.1 mph - N/A   Overcast
8:35 PM 1.4 °F -11.3 °F -7.6 °F 66% 30.11 in 10.0 mi West 6.9 mph - N/A   Mostly Cloudy
8:55 PM 1.4 °F -11.3 °F -7.6 °F 66% 30.10 in 10.0 mi West 6.9 mph - N/A   Overcast
9:15 PM -0.4 °F -13.4 °F -7.6 °F 72% 30.10 in 10.0 mi West 6.9 mph - N/A   Overcast
9:35 PM -0.4 °F -12.0 °F -7.6 °F 72% 30.10 in 10.0 mi West 5.8 mph - N/A   Overcast
9:55 PM -0.4 °F -12.0 °F -7.6 °F 72% 30.10 in 10.0 mi West 5.8 mph - N/A   Overcast
10:15 PM -0.4 °F -10.4 °F -7.6 °F 72% 30.10 in 10.0 mi West 4.6 mph - N/A   Mostly Cloudy
10:35 PM -0.4 °F -10.4 °F -7.6 °F 72% 30.10 in 10.0 mi West 4.6 mph - N/A   Mostly Cloudy
10:55 PM -0.4 °F -8.3 °F -7.6 °F 72% 30.09 in 10.0 mi West 3.5 mph - N/A   Overcast
11:15 PM -0.4 °F -12.0 °F -5.8 °F 78% 30.08 in 7.0 mi West 5.8 mph - N/A   Overcast
11:35 PM -0.4 °F -13.4 °F -5.8 °F 78% 30.08 in 7.0 mi West 6.9 mph - N/A   Overcast
11:55 PM -0.4 °F -16.7 °F -5.8 °F 78% 30.07 in 4.0 mi West 10.4 mph - N/A   Haze